Plymouth, MA

11:33 AM EST on December 09, 2019 (GMT -0500)
Plymouth Municipal

Weather History for KPYM - November, 2019

Change the Weather History Date:

Thursday, November 14, 2019

  Actual Average Record
Temperature  
Mean Temperature 28 °F -  
Max Temperature 39 °F 50 °F 72 °F (1959)
Min Temperature 18 °F 32 °F 15 °F (1986)
Degree Days  
Heating Degree Days 36    
Moisture  
Dew Point 24 °F    
Average Humidity 74    
Maximum Humidity 96    
Minimum Humidity 56    
Precipitation  
Precipitation 0.00 in - - ()
Sea Level Pressure  
Sea Level Pressure 30.41 in    
Wind  
Wind Speed 4 mph (SSE)    
Max Wind Speed 8 mph    
Max Gust Speed -    
Visibility 10 miles    
Events Rain    
Averages and records for this station are not official NWS values.
T = Trace of Precipitation, MM = Missing Value Source: NWS Daily Summary

Daily Weather History Graph

Daily Weather History Graph

Search for Another Location

Airport or City:

Astronomy

Nov. 14, 2019 Rise Set
Actual Time 6:31 AM EST 4:23 PM EST
Civil Twilight 6:01 AM EST 4:52 PM EST
Nautical Twilight 5:27 AM EST 5:26 PM EST
Astronomical Twilight 4:54 AM EST 5:59 PM EST
Moon 6:05 PM EST (11/14) 8:24 AM EST (11/14)
Length of Visible Light 10h 51m
Length of Day
9h 52m
Waning Gibbous, 95% of the Moon is Illuminated
Nov 14
Waning Gibbous
Nov 19
Last Quarter
Nov 26
New
Dec 4
First Quarter
Dec 12
Full

Hourly Weather History & Observations

Time (EST) Temp. Windchill Dew Point Humidity Pressure Visibility Wind Dir Wind Speed Gust Speed Precip Events Conditions
12:52 AM 19.9 °F 10.1 °F 8.1 °F 60% 30.46 in 10.0 mi WNW 8.1 mph - N/A   Clear
1:52 AM 19.9 °F 12.1 °F 9.0 °F 62% 30.46 in 10.0 mi NW 5.8 mph - N/A   Clear
2:52 AM 19.9 °F 14.9 °F 10.0 °F 65% 30.47 in 10.0 mi NW 3.5 mph - N/A   Clear
3:52 AM 19.9 °F 14.9 °F 10.9 °F 68% 30.47 in 10.0 mi WNW 3.5 mph - N/A   Clear
4:52 AM 19.0 °F 12.3 °F 10.0 °F 68% 30.49 in 10.0 mi WNW 4.6 mph - N/A   Clear
5:52 AM 19.0 °F - 10.0 °F 68% 30.49 in 10.0 mi Calm Calm - N/A   Clear
6:52 AM 18.0 °F - 12.0 °F 78% 30.49 in 10.0 mi Calm Calm - N/A   Clear
7:52 AM 24.1 °F - 12.0 °F 60% 30.51 in 10.0 mi Calm Calm - N/A   Clear
8:52 AM 28.0 °F - 16.0 °F 61% 30.52 in 10.0 mi Calm Calm - N/A   Clear
9:52 AM 32.0 °F 28.7 °F 18.0 °F 56% 30.50 in 10.0 mi SSE 3.5 mph - N/A   Clear
10:52 AM 35.1 °F 29.3 °F 23.0 °F 61% 30.48 in 10.0 mi SSE 6.9 mph - N/A   Clear
11:52 AM 39.0 °F 34.8 °F 26.1 °F 60% 30.45 in 10.0 mi Variable 5.8 mph - N/A   Clear
12:52 PM 39.0 °F 33.4 °F 27.0 °F 62% 30.42 in 10.0 mi South 8.1 mph - N/A   Overcast
1:30 PM 39.0 °F 34.8 °F 28.9 °F 67% 30.41 in 10.0 mi Variable 5.8 mph - N/A   Overcast
1:48 PM 37.4 °F 32.8 °F 30.2 °F 75% 30.40 in 10.0 mi Variable 5.8 mph - 0.00 in Rain Light Rain
1:52 PM 39.0 °F 33.4 °F 32.0 °F 76% 30.40 in 10.0 mi SSE 8.1 mph - 0.00 in   Overcast
2:52 PM 39.9 °F 35.8 °F 33.1 °F 77% 30.39 in 10.0 mi SE 5.8 mph - N/A   Mostly Cloudy
3:52 PM 39.0 °F 36.8 °F 34.0 °F 82% 30.38 in 10.0 mi ESE 3.5 mph - N/A   Partly Cloudy
4:52 PM 37.0 °F - 33.1 °F 86% 30.36 in 10.0 mi Calm Calm - N/A   Clear
5:52 PM 36.0 °F 32.1 °F 33.1 °F 89% 30.34 in 10.0 mi ESE 4.6 mph - N/A   Clear
6:52 PM 32.0 °F 28.7 °F 30.9 °F 96% 30.32 in 10.0 mi East 3.5 mph - N/A   Clear
7:52 PM 34.0 °F 31.0 °F 33.1 °F 96% 30.30 in 10.0 mi SE 3.5 mph - N/A   Mostly Cloudy
8:52 PM 36.0 °F - 33.1 °F 89% 30.29 in 10.0 mi Calm Calm - N/A   Mostly Cloudy
9:52 PM 37.0 °F - 34.0 °F 89% 30.29 in 10.0 mi Calm Calm - N/A   Overcast
10:52 PM 36.0 °F - 34.0 °F 93% 30.28 in 10.0 mi Calm Calm - N/A   Overcast
11:52 PM 35.1 °F - 33.1 °F 92% 30.26 in 10.0 mi Calm Calm - N/A   Mostly Cloudy